Terug naar catalogus

KUIPER-00602

ActiefCommunicatieLEO
NORAD 69286·PAYLOAD·🇺🇸 United States

Gelanceerd May 29, 2026 vanaf Vandenberg Space Force Base

Loading…

Volgende Passages (komende 24 uur)

TLE

VersSource: CelesTrak SupGP

Epoch: Sep 15, 2026, 02:04 UTC

1 69286C 26118V   26258.08657407  .00002708  00000+0  35441-3 0  2583
2 69286  51.9023 355.5471 0000576 194.6978  22.5407 14.79930719    16

Volg KUIPER-00602 in realtime met AllMySat

Download on the App Store